Location: Newark
(31.5350°N, 35.0986°E)
Time: 15:49:16
(UTC+00:00)

Explorer 7 - All Passes

Search period start: 18 October 2019 00:00
Search period end: 28 October 2019 00:00
Orbit: 485 x 680 km, 50.3° (Epoch: 18 October)

Date Brightness Start Highest point End Pass type
(mag) Time Alt. Az. Time Alt. Az. Time Alt. Az.
18 Oct - 08:13:06 10° SSW 08:16:42 43° SE 08:20:16 10° ENE daylight
18 Oct - 09:54:28 10° W 09:57:18 20° NNW 10:00:08 10° NNE daylight
18 Oct - 15:00:47 10° NNW 15:03:32 17° NNE 15:06:23 10° ENE daylight
18 Oct - 16:40:12 10° NW 16:44:21 73° SW 16:48:46 10° SE visible
19 Oct - 08:17:51 10° SW 08:21:39 88° SE 08:25:23 10° NE daylight
19 Oct - 10:00:42 10° WNW 10:02:33 13° NNW 10:04:24 10° N daylight
19 Oct - 15:05:17 10° NNW 15:08:43 26° NE 15:12:19 10° E daylight
19 Oct - 16:45:23 10° WNW 16:49:17 39° SW 16:53:24 10° SSE visible
20 Oct - 06:44:20 10° SSE 06:46:29 15° SE 06:48:37 10° E daylight
20 Oct - 08:22:58 10° WSW 08:26:39 48° NW 08:30:16 10° NE daylight
20 Oct - 15:09:58 10° NNW 15:13:48 42° NE 15:17:54 10° ESE daylight
20 Oct - 16:50:57 10° W 16:54:09 21° SW 16:57:31 10° S visible
21 Oct - 06:48:01 10° S 06:51:19 28° SE 06:54:33 10° ENE daylight
21 Oct - 08:28:28 10° W 08:31:44 27° NW 08:34:59 10° NNE daylight
21 Oct - 13:36:00 10° N 13:37:51 13° NNE 13:39:44 10° NE daylight
21 Oct - 15:14:48 10° NW 15:18:50 76° NE 15:23:08 10° SE daylight
21 Oct - 16:57:35 10° WSW 16:58:59 11° SW 17:00:26 10° SSW visible
22 Oct - 06:52:26 10° SSW 06:56:13 55° SE 06:59:53 10° NE daylight
22 Oct - 08:34:19 10° WNW 08:36:54 17° NNW 08:39:28 10° NNE daylight
22 Oct - 13:40:14 10° NNW 13:43:06 19° NNE 13:46:03 10° ENE daylight
22 Oct - 15:19:49 10° NW 15:23:48 58° SW 15:28:01 10° SSE visible
23 Oct - 06:57:20 10° SW 07:01:10 75° NW 07:04:56 10° NE daylight
23 Oct - 08:40:48 10° NW 08:42:10 12° NNW 08:43:31 10° N daylight
23 Oct - 13:44:46 10° NNW 13:48:15 29° NE 13:51:52 10° E daylight
23 Oct - 15:25:07 10° WNW 15:28:42 31° SW 15:32:29 10° SSE visible
24 Oct - 05:23:10 10° S 05:25:56 18° SE 05:28:38 10° E daylight
24 Oct - 07:02:34 10° WSW 07:06:12 39° NW 07:09:45 10° NNE daylight
24 Oct - 13:49:29 10° NW 13:53:18 49° NE 13:57:20 10° ESE daylight
24 Oct - 15:30:55 10° W 15:33:34 17° SW 15:36:19 10° S visible
25 Oct - 05:27:11 10° SSW 05:30:48 35° SE 05:34:18 10° ENE daylight
25 Oct - 07:08:09 10° W 07:11:18 24° NW 07:14:24 10° NNE daylight
25 Oct - 12:15:21 10° N 12:17:25 14° NNE 12:19:32 10° ENE daylight
25 Oct - 13:54:22 10° NW 13:58:18 89° SW 14:02:28 10° SE daylight
26 Oct - 05:31:47 10° SW 05:35:43 70° SE 05:39:30 10° NE daylight
26 Oct - 07:14:10 10° WNW 07:16:29 15° NNW 07:18:48 10° N daylight
26 Oct - 12:19:40 10° NNW 12:22:38 21° NNE 12:25:42 10° E daylight
26 Oct - 13:59:29 10° WNW 14:03:15 46° SW 14:07:13 10° SSE daylight
27 Oct - 03:58:50 10° SSE 04:00:33 12° SE 04:02:14 10° ESE daylight
27 Oct - 05:36:47 10° WSW 05:40:42 61° NW 05:44:27 10° NE daylight
27 Oct - 07:21:08 10° NW 07:21:46 10° NNW 07:22:24 10° NNW daylight
27 Oct - 12:24:15 10° NNW 12:27:46 33° NE 12:31:25 10° ESE daylight
27 Oct - 14:04:54 10° WNW 14:08:08 24° SW 14:11:30 10° S daylight
